#timestamp,LO_Frequency,Hit,StdDev 
1627797615.7,286047024.8,N
1627797635.6,286047023.9,N
1627797655.4,286047024.2,N
1627797675.2,286047026.6,N
1627797695.1,286047023.8,N
1627797696.0,286047023.8,N
1627797715.8,286047026.2,Y
1627797735.7,286047008.4,P
1627797755.5,286047008.0,N
1627797775.3,286047007.9,N
1627797795.2,286047007.7,N
1627797815.0,286047010.1,N
1627797815.9,286047010.1,N
1627797835.7,286047009.8,N
1627797855.6,286047014.5,Y
1627797875.4,286047003.4,P
1627797895.3,286047003.2,N
1627797915.1,286047003.3,N
1627797916.0,286047003.3,N
1627797935.8,286047005.9,N
1627797955.7,286047007.2,N
1627797975.5,286047007.1,N
1627797995.3,286047007.3,N
1627798015.2,286047004.9,N
1627798035.0,286047005.5,N
1627798035.9,286047005.5,N
1627798055.8,286047004.5,N
1627798075.6,286047007.1,Y
1627798095.4,286047005.6,P
1627798115.3,286047005.3,P
1627798135.1,286047003.3,P
1627798155.9,286047004.3,Y
1627798175.7,286047000.4,P
1627798195.5,286047005.5,N
1627798215.4,286047003.1,N
1627798235.2,286047006.8,Y
1627798255.1,286047005.7,P
1627798256.0,286047005.7,P
1627798275.8,286047004.9,P
1627798295.6,286047006.1,Y
1627798315.5,286047003.5,P
1627798335.3,286047000.2,N
1627798355.2,286046999.1,N
1627798375.9,286046996.1,N
1627798395.7,286046991.8,N
1627798415.6,286046993.9,N
1627798435.4,286046995.4,N
1627798455.2,286046998.8,N
1627798475.1,286047000.5,N
1627798476.0,286047000.5,N
1627798495.8,286047000.0,N
1627798515.7,286046998.5,N
1627798535.5,286046997.1,N
1627798555.3,286046997.3,N
1627798575.2,286046996.4,N
1627798595.0,286046997.1,N
1627798595.9,286046997.1,N
1627798615.8,286047000.3,N
1627798635.6,286047000.2,N
1627798655.4,286047002.7,N
1627798675.3,286047001.3,N
1627798695.1,286047004.3,N
1627798715.9,286047003.5,N
1627798735.7,286047002.7,N
1627798755.6,286047000.2,N
1627798775.4,286047004.1,N
1627798795.2,286047003.1,N
1627798815.1,286047004.8,N
1627798816.0,286047004.8,N
1627798835.8,286047008.4,N
1627798855.7,286047010.1,N
1627798875.5,286047011.6,N
1627798895.3,286047013.7,Y
1627798915.2,286047016.8,P
1627798935.0,286047012.6,N
1627798935.9,286047012.6,N
1627798955.8,286047013.7,N
1627798975.6,286047009.9,N
1627798995.4,286047010.5,N
1627799015.3,286047006.1,N
1627799035.1,286047003.5,N
1627799055.9,286047000.7,N
1627799075.7,286046999.7,N
1627799095.5,286046998.8,N
1627799115.4,286046996.6,N
1627799135.2,286046993.7,N
1627799155.0,286046993.7,N
1627799155.9,286046993.7,N
1627799175.8,286046996.0,N
1627799195.6,286046993.5,N
1627799215.5,286046994.1,N
1627799235.3,286046991.7,N
1627799255.1,286046992.0,N
1627799275.9,286046992.3,N
1627799295.7,286046991.0,N
1627799315.6,286046989.4,N
1627799335.4,286046990.5,N
1627799355.2,286046991.7,N
1627799375.1,286046990.6,N
1627799376.0,286046990.6,N
1627799395.8,286046991.0,N
1627799415.6,286046988.9,N
1627799435.5,286046986.9,N
1627799455.3,286046986.9,N
1627799475.2,286046986.9,N
1627799495.9,286046985.8,N
1627799515.7,286046986.0,N
1627799535.6,286046980.9,N
1627799555.4,286046980.3,Y
1627799575.3,286046984.9,P
1627799595.1,286046983.0,P
1627799596.0,286046983.0,P
1627799615.8,286046982.9,Y
1627799635.7,286046997.8,P
1627799655.5,286046992.6,N
1627799675.4,286046992.6,N
1627799695.2,286046990.5,N
1627799715.0,286046992.0,N
1627799715.9,286046992.0,N
1627799735.8,286046992.3,N
1627799755.6,286046990.2,Y
1627799775.4,286046998.2,P
1627799795.3,286046998.8,N
1627799815.1,286046999.2,N
1627799835.9,286046997.3,N
1627799855.7,286046996.8,N
1627799875.5,286046999.3,N
1627799895.4,286046995.3,N
1627799915.9,286046993.9,N
1627799935.7,286046997.9,N
1627799955.6,286046997.6,N
1627799975.4,286046995.0,N
1627799995.2,286046995.1,N
1627800015.1,286046994.2,N
1627800016.0,286046994.2,N
1627800035.8,286046992.4,Y
1627800055.7,286046995.3,P
1627800075.5,286046996.8,P
1627800095.3,286046999.3,N
1627800115.2,286047001.4,N
1627800135.0,286047004.1,N
1627800135.9,286047004.1,N
1627800155.7,286047002.9,N
1627800175.6,286047005.9,N
1627800195.4,286047003.0,N
1627800215.3,286047003.7,N
1627800235.1,286047001.7,N
1627800236.0,286047001.7,N
1627800255.8,286047004.3,N
1627800275.7,286047003.1,N
1627800295.5,286047001.6,N
1627800315.3,286047004.0,N
1627800335.2,286047000.4,N
1627800355.0,286046997.2,N
1627800355.9,286046997.2,N
1627800375.8,286046995.7,N
1627800395.6,286046993.7,N
1627800415.4,286046995.6,N
1627800435.3,286046996.2,N
1627800455.1,286046997.6,N
1627800475.8,286046999.4,N
1627800495.7,286046997.4,N
1627800515.5,286046995.4,N
1627800535.4,286046995.9,N
1627800555.2,286046993.5,N
1627800575.0,286046994.5,N
1627800575.9,286046994.5,N
1627800595.8,286046997.6,N
1627800615.6,286046993.5,N
1627800635.4,286046995.5,N
1627800655.3,286046997.8,N
1627800675.1,286046994.5,N
1627800695.9,286046993.1,N
1627800715.7,286046990.2,N
1627800735.5,286046988.2,Y
1627800755.4,286046989.0,P
1627800775.2,286046992.6,N
1627800795.0,286046992.4,N
1627800796.0,286046992.4,N
1627800815.8,286046990.8,Y
1627800835.6,286046995.4,P
1627800855.5,286046995.2,P
1627800875.3,286046995.9,P
1627800895.1,286046995.4,Y
1627800915.9,286047002.8,P
1627800935.7,286046997.5,N
1627800955.6,286046994.0,N
1627800975.4,286046993.5,N
1627800995.2,286046997.7,N
1627801015.1,286046997.7,N
1627801016.0,286046997.7,N
1627801035.8,286046995.1,N
1627801055.7,286046996.9,N
1627801075.5,286047000.9,N
1627801095.3,286047001.9,N
1627801115.2,286047004.0,N
1627801135.9,286047003.6,N
1627801155.7,286047004.1,N
1627801175.6,286047004.3,N
1627801195.4,286047003.8,N
